EW5196 Weather Reports


time (UTC)temp
C
wind
direction
speed
KPH
gust
KPH
rain 1hr
cm
rain 24hr
cm
rain mn
cm
humidity
%
barometer
mb
20260901125207 24 177 0.0 1.6 0.00 0.00 0.00 95 1019.9
20260901124701 23 242 0.0 0.0 0.00 0.00 0.00 96 1019.6
20260901124201 23 242 0.0 0.0 0.00 0.00 0.00 96 1019.8
20260901123655 23 147 0.0 3.2 0.00 0.00 0.00 97 1020.1
20260901123155 23 119 1.6 3.2 0.00 0.00 0.00 97 1019.9
20260901122654 23 133 1.6 3.2 0.00 0.00 0.00 97 1019.7
20260901122149 23 131 3.2 3.2 0.00 0.00 0.00 98 1019.8
20260901121643 23 74 0.0 1.6 0.00 0.00 0.00 98 1019.8
20260901121139 22 190 0.0 1.6 0.00 0.00 0.00 99 1019.8
20260901120638 22 156 0.0 1.6 0.00 0.00 0.00 99 1019.9
20260901120133 22 158 0.0 3.2 0.00 0.00 0.00 99 1019.8
20260901115629 22 147 0.0 0.0 0.00 0.00 0.00 99 1019.8
20260901115125 22 154 0.0 0.0 0.00 0.00 0.00 99 1019.9
20260901114622 22 150 0.0 1.6 0.00 0.00 0.00 99 1019.9
20260901114120 22 169 0.0 3.2 0.00 0.00 0.00 99 1019.9
20260901113619 22 154 0.0 1.6 0.00 0.00 0.00 99 1019.5
20260901113114 22 169 1.6 3.2 0.00 0.00 0.00 99 1019.4
20260901112609 22 162 3.2 3.2 0.00 0.00 0.00 99 1019.5
20260901112103 22 171 1.6 3.2 0.00 0.00 0.00 99 1019.4
20260901111603 22 154 0.0 1.6 0.00 0.00 0.00 99 1019.4
20260901111101 22 147 0.0 0.0 0.00 0.00 0.00 99 1019.3
20260901110557 22 154 0.0 3.2 0.00 0.00 0.00 99 1019.5
20260901110052 22 189 0.0 3.2 0.00 0.00 0.00 99 1019.4
20260901105549 21 172 0.0 1.6 0.00 0.00 0.00 98 1019.2
20260901105048 22 117 0.0 1.6 0.00 0.00 0.00 98 1019.2
20260901104544 22 114 0.0 1.6 0.00 0.00 0.00 98 1018.9
20260901104040 22 158 0.0 3.2 0.00 0.00 0.00 98 1019.1
20260901103534 22 143 0.0 1.6 0.00 0.00 0.00 98 1019.2
20260901103030 22 128 0.0 1.6 0.00 0.00 0.00 98 1019.2
20260901102529 22 180 0.0 0.0 0.00 0.00 0.00 98 1019.0
20260901102024 22 172 0.0 1.6 0.00 0.00 0.00 98 1019.1
20260901101520 22 172 0.0 0.0 0.00 0.00 0.00 98 1019.3
20260901101019 22 159 0.0 0.0 0.00 0.00 0.00 98 1019.3
20260901100514 22 170 0.0 1.6 0.00 0.00 0.00 98 1019.2
20260901100013 22 145 3.2 3.2 0.00 0.00 0.00 98 1019.3
20260901095512 22 134 1.6 3.2 0.00 0.00 0.00 98 1019.4
20260901095010 22 171 0.0 3.2 0.00 0.00 0.00 98 1019.3
20260901094505 22 200 0.0 1.6 0.00 0.00 0.00 98 1019.4
20260901094004 22 180 0.0 1.6 0.00 0.00 0.00 98 1019.2
20260901093458 22 119 0.0 1.6 0.00 0.00 0.00 98 1019.2
20260901092953 22 119 1.6 1.6 0.00 0.00 0.00 98 1019.1
20260901092449 22 145 0.0 3.2 0.00 0.00 0.00 98 1019.3
20260901091945 22 154 1.6 1.6 0.00 0.00 0.00 98 1019.3
20260901091440 22 133 3.2 3.2 0.00 0.00 0.00 98 1019.4
20260901090935 22 151 0.0 3.2 0.00 0.00 0.00 98 1019.2
20260901090435 22 169 1.6 3.2 0.00 0.00 0.00 98 1019.3
20260901085930 22 153 1.6 3.2 0.00 0.00 0.00 98 1019.3
20260901085426 22 154 0.0 0.0 0.00 0.00 0.00 98 1019.3
20260901084922 22 247 0.0 0.0 0.00 0.00 0.00 98 1019.1
20260901084418 22 187 1.6 3.2 0.00 0.00 0.00 98 1019.1
20260901083914 22 167 3.2 3.2 0.00 0.00 0.00 98 1019.2
20260901083414 22 148 0.0 1.6 0.00 0.00 0.00 98 1019.2
20260901082912 22 119 0.0 0.0 0.00 0.00 0.00 98 1019.3
20260901082407 22 172 0.0 0.0 0.00 0.00 0.00 98 1019.4
20260901081902 22 154 0.0 1.6 0.00 0.00 0.00 98 1019.2
20260901081357 22 159 1.6 3.2 0.00 0.00 0.00 98 1019.2
20260901080857 22 159 1.6 3.2 0.00 0.00 0.00 97 1019.0
20260901080352 22 164 1.6 1.6 0.00 0.00 0.00 97 1019.4
20260901075846 22 164 3.2 3.2 0.00 0.00 0.00 97 1019.3
20260901075341 22 165 1.6 3.2 0.00 0.00 0.00 97 1019.3
20260901074836 22 171 0.0 1.6 0.00 0.00 0.00 97 1019.2
20260901074331 22 167 1.6 3.2 0.00 0.00 0.00 97 1019.2
20260901073826 22 158 1.6 3.2 0.00 0.00 0.00 97 1019.1
20260901073322 22 161 0.0 3.2 0.00 0.00 0.00 97 1019.2
20260901072818 22 149 0.0 1.6 0.00 0.00 0.00 97 1019.0
20260901072317 22 172 0.0 0.0 0.00 0.00 0.00 97 1018.9
20260901071813 22 148 0.0 1.6 0.00 0.00 0.00 97 1019.2
20260901071311 22 163 0.0 1.6 0.00 0.00 0.00 97 1019.3
20260901070810 22 176 1.6 3.2 0.00 0.00 0.00 97 1019.5
20260901070306 22 163 1.6 3.2 0.00 0.00 0.00 97 1019.7
20260901065805 22 169 0.0 3.2 0.00 0.00 0.00 97 1019.6
20260901065300 22 154 0.0 0.0 0.00 0.00 0.00 97 1019.4
20260901064756 22 159 1.6 1.6 0.00 0.00 0.00 96 1019.5
20260901064252 22 173 0.0 1.6 0.00 0.00 0.00 96 1019.5
20260901063750 22 158 3.2 3.2 0.00 0.00 0.00 96 1019.7
20260901063245 22 156 1.6 3.2 0.00 0.00 0.00 96 1019.6
20260901062741 22 156 0.0 0.0 0.00 0.00 0.00 96 1019.9
20260901062237 22 186 0.0 1.6 0.00 0.00 0.00 96 1019.7
20260901061733 22 169 1.6 1.6 0.00 0.00 0.00 96 1019.9
20260901061232 22 148 1.6 1.6 0.00 0.00 0.00 96 1019.9
20260901060727 22 147 0.0 1.6 0.00 0.00 0.00 96 1019.7
20260901060223 22 149 0.0 1.6 0.00 0.00 0.00 95 1019.8
20260901055718 22 163 1.6 3.2 0.00 0.00 0.00 95 1019.9
20260901055215 22 150 1.6 3.2 0.00 0.00 0.00 95 1019.8
20260901054711 23 152 1.6 1.6 0.00 0.00 0.00 95 1020.0
20260901054208 23 141 1.6 3.2 0.00 0.00 0.00 95 1019.9
20260901053703 23 142 1.6 3.2 0.00 0.00 0.00 94 1020.1
20260901053159 23 151 1.6 1.6 0.00 0.00 0.00 94 1020.1
20260901052654 23 172 0.0 1.6 0.00 0.00 0.00 94 1020.1
20260901052149 23 172 0.0 1.6 0.00 0.00 0.00 94 1019.8
20260901051648 23 183 1.6 3.2 0.00 0.00 0.00 94 1020.0
20260901051148 23 177 1.6 3.2 0.00 0.00 0.00 93 1020.1
20260901050643 23 170 0.0 3.2 0.00 0.00 0.00 93 1020.4
20260901050138 23 165 1.6 1.6 0.00 0.00 0.00 93 1020.2
20260901045638 23 179 1.6 3.2 0.00 0.00 0.00 93 1020.2
20260901045133 23 155 1.6 3.2 0.00 0.00 0.00 92 1020.3
20260901044629 23 155 1.6 3.2 0.00 0.00 0.00 92 1020.5
20260901044125 23 164 0.0 0.0 0.00 0.00 0.00 91 1020.5
20260901043620 24 159 0.0 1.6 0.00 0.00 0.00 91 1020.4
20260901043116 24 159 0.0 1.6 0.00 0.00 0.00 91 1020.1
20260901042615 24 172 0.0 0.0 0.00 0.00 0.00 91 1020.4
20260901042110 24 172 0.0 1.6 0.00 0.00 0.00 91 1020.5
20260901041606 24 190 1.6 3.2 0.00 0.00 0.00 90 1020.2
20260901041101 24 165 1.6 3.2 0.00 0.00 0.00 89 1020.2
20260901040600 24 160 0.0 1.6 0.00 0.00 0.00 89 1020.0
20260901040055 24 159 0.0 1.6 0.00 0.00 0.00 89 1020.3
20260901035553 24 133 0.0 1.6 0.00 0.00 0.00 90 1020.1
20260901035052 24 184 0.0 1.6 0.00 0.00 0.00 91 1020.2
20260901034551 24 139 1.6 3.2 0.00 0.00 0.00 91 1020.2
20260901034051 25 150 0.0 3.2 0.00 0.00 0.00 91 1020.4
20260901033550 25 160 0.0 1.6 0.00 0.00 0.00 89 1020.2
20260901033045 25 148 1.6 3.2 0.00 0.00 0.00 88 1020.2
20260901032544 25 174 1.6 3.2 0.00 0.00 0.00 88 1020.2
20260901032039 25 160 1.6 1.6 0.00 0.00 0.00 88 1020.1
20260901031534 25 150 1.6 3.2 0.00 0.00 0.00 88 1020.0
20260901031030 25 147 1.6 3.2 0.00 0.00 0.00 87 1020.2
20260901030530 25 162 0.0 1.6 0.00 0.00 0.00 85 1019.8
20260901030025 25 154 0.0 3.2 0.00 0.00 0.00 84 1020.1
20260901025524 26 159 1.6 1.6 0.00 0.00 0.00 84 1020.2
20260901025019 26 168 3.2 3.2 0.00 0.00 0.00 84 1020.2
20260901024514 26 152 1.6 3.2 0.00 0.00 0.00 83 1020.2
20260901024012 26 169 1.6 1.6 0.00 0.00 0.00 83 1020.0
20260901023507 26 156 0.0 1.6 0.00 0.00 0.00 83 1020.0
20260901023002 26 169 1.6 3.2 0.00 0.00 0.00 82 1020.1
20260901022457 26 162 0.0 1.6 0.00 0.00 0.00 81 1020.0
20260901021952 27 172 0.0 3.2 0.00 0.00 0.00 79 1020.0
20260901021448 27 119 0.0 1.6 0.00 0.00 0.00 78 1020.0
20260901020943 27 159 0.0 0.0 0.00 0.00 0.00 77 1020.2
20260901020438 27 161 0.0 1.6 0.00 0.00 0.00 77 1020.3
20260901015936 27 137 0.0 1.6 0.00 0.00 0.00 77 1020.3
20260901015434 27 126 1.6 3.2 0.00 0.00 0.00 77 1020.0
20260901014932 27 129 1.6 3.2 0.00 0.00 0.00 77 1020.1
20260901014429 27 137 0.0 1.6 0.00 0.00 0.00 76 1020.0
20260901013925 27 99 0.0 3.2 0.00 0.00 0.00 77 1020.1
20260901013420 27 62 0.0 3.2 0.00 0.00 0.00 75 1019.9
20260901012916 27 157 0.0 1.6 0.00 0.00 0.00 74 1020.1
20260901012411 27 141 0.0 3.2 0.00 0.00 0.00 73 1020.0
20260901011906 27 160 0.0 3.2 0.00 0.00 0.00 75 1019.8
20260901011402 27 177 0.0 1.6 0.00 0.00 0.00 74 1019.8
20260901010900 27 194 0.0 3.2 0.00 0.00 0.00 75 1019.7
20260901010355 27 146 1.6 1.6 0.00 0.00 0.00 76 1019.9
20260901005853 27 201 0.0 1.6 0.00 0.00 0.00 78 1019.9
20260901005348 27 161 0.0 1.6 0.00 0.00 0.00 76 1019.5
20260901004839 27 150 1.6 3.2 0.00 0.00 0.00 79 1019.4
20260901004338 27 142 0.0 1.6 0.00 0.00 0.00 79 1019.8
20260901003832 27 154 0.0 1.6 0.00 0.00 0.00 77 1020.1
20260901003328 27 155 0.0 1.6 0.00 0.00 0.00 77 1020.1
20260901002826 27 158 1.6 3.2 0.00 0.00 0.00 80 1020.0
20260901002326 27 147 0.0 3.2 0.00 0.00 0.00 77 1019.9
20260901001826 27 196 0.0 3.2 0.00 0.00 0.00 77 1019.8
20260901001322 27 214 0.0 1.6 0.00 0.00 0.00 77 1019.8
20260901000817 28 189 1.6 1.6 0.00 0.00 0.00 76 1019.7
20260901000314 27 183 1.6 3.2 0.00 0.00 0.00 76 1019.8
20260831235810 27 180 3.2 4.8 0.00 0.00 0.00 78 1019.5
20260831235306 27 149 1.6 3.2 0.00 0.00 0.00 81 1019.5
20260831234801 27 119 0.0 3.2 0.00 0.00 0.00 78 1019.7
20260831234301 27 167 1.6 1.6 0.00 0.00 0.00 79 1019.4
20260831233756 28 171 0.0 0.0 0.00 0.00 0.00 78 1019.4
20260831233252 28 194 0.0 3.2 0.00 0.00 0.00 77 1019.8
20260831232746 28 216 0.0 3.2 0.00 0.00 0.00 77 1019.7
20260831232243 28 200 1.6 3.2 0.00 0.00 0.00 76 1019.6
20260831231739 28 206 0.0 1.6 0.00 0.00 0.00 76 1019.4
20260831231235 28 205 1.6 3.2 0.00 0.00 0.00 76 1019.5
20260831230730 28 226 0.0 1.6 0.00 0.00 0.00 76 1019.6
20260831230225 28 206 1.6 1.6 0.00 0.00 0.00 75 1019.4
20260831225724 29 188 0.0 1.6 0.00 0.00 0.00 73 1019.4
20260831225219 29 152 1.6 3.2 0.00 0.00 0.00 73 1019.5
20260831224709 30 241 0.0 3.2 0.00 0.00 0.00 70 1019.4
20260831224204 30 208 1.6 3.2 0.00 0.00 0.00 68 1019.3
20260831223659 30 225 0.0 1.6 0.00 0.00 0.00 67 1019.6
20260831223156 30 141 0.0 3.2 0.00 0.00 0.00 62 1019.6
20260831222651 30 149 0.0 1.6 0.00 0.00 0.00 65 1019.7
20260831222147 30 177 0.0 1.6 0.00 0.00 0.00 63 1019.6
20260831221642 31 171 0.0 0.0 0.00 0.00 0.00 63 1019.5
20260831221137 31 239 0.0 3.2 0.00 0.00 0.00 62 1019.7
20260831220632 31 156 1.6 1.6 0.00 0.00 0.00 60 1019.3
20260831220127 31 246 3.2 4.8 0.00 0.00 0.00 56 1019.6
20260831215623 32 291 3.2 3.2 0.00 0.00 0.00 54 1019.7
20260831215118 32 240 3.2 4.8 0.00 0.00 0.00 55 1019.4
20260831214615 32 260 4.8 6.4 0.00 0.00 0.00 54 1019.5
20260831214112 32 232 3.2 4.8 0.00 0.00 0.00 56 1019.6
20260831213609 32 172 0.0 0.0 0.00 0.00 0.00 55 1019.4
20260831213103 32 151 0.0 3.2 0.00 0.00 0.00 54 1019.5
20260831212559 32 152 0.0 3.2 0.00 0.00 0.00 56 1019.4
20260831212055 32 238 3.2 4.8 0.00 0.00 0.00 54 1019.6
20260831211549 32 248 1.6 3.2 0.00 0.00 0.00 55 1019.5
20260831211048 32 164 1.6 3.2 0.00 0.00 0.00 55 1019.5
20260831210543 32 298 1.6 4.8 0.00 0.00 0.00 53 1019.3
20260831210040 32 222 0.0 4.8 0.00 0.00 0.00 57 1019.4
20260831205539 32 132 0.0 3.2 0.00 0.00 0.00 54 1019.4
20260831205035 32 199 1.6 4.8 0.00 0.00 0.00 52 1019.4
20260831204530 32 230 6.4 8.0 0.00 0.00 0.00 52 1019.3
20260831204028 33 283 3.2 6.4 0.00 0.00 0.00 52 1019.4
20260831203528 33 327 0.0 4.8 0.00 0.00 0.00 51 1019.5
20260831203027 33 285 0.0 3.2 0.00 0.00 0.00 53 1019.4
20260831202521 33 109 0.0 1.6 0.00 0.00 0.00 51 1019.4
20260831202021 33 283 3.2 4.8 0.00 0.00 0.00 53 1019.4
20260831201520 33 157 3.2 3.2 0.00 0.00 0.00 52 1019.1
20260831201016 33 230 3.2 8.0 0.00 0.00 0.00 50 1019.2
20260831200511 33 235 4.8 6.4 0.00 0.00 0.00 53 1019.2
20260831200006 33 254 0.0 4.8 0.00 0.00 0.00 51 1019.6
20260831195502 33 238 1.6 8.0 0.00 0.00 0.00 50 1019.7
20260831195001 33 130 3.2 6.4 0.00 0.00 0.00 49 1019.5
20260831194457 33 205 1.6 6.4 0.00 0.00 0.00 51 1019.6
20260831193956 33 290 3.2 8.0 0.00 0.00 0.00 49 1019.6
20260831193452 33 170 4.8 6.4 0.00 0.00 0.00 48 1019.6
20260831192947 34 293 3.2 8.0 0.00 0.00 0.00 47 1019.5
20260831192442 34 134 0.0 4.8 0.00 0.00 0.00 49 1019.6
20260831191937 33 228 6.4 6.4 0.00 0.00 0.00 49 1019.5
20260831191433 33 200 1.6 6.4 0.00 0.00 0.00 51 1019.8
20260831190929 33 247 4.8 4.8 0.00 0.00 0.00 50 1019.6
20260831190424 32 153 1.6 3.2 0.00 0.00 0.00 53 1019.8
20260831185923 33 276 3.2 4.8 0.00 0.00 0.00 50 1019.9
20260831185419 33 212 4.8 6.4 0.00 0.00 0.00 48 1020.0
20260831184918 34 245 4.8 6.4 0.00 0.00 0.00 47 1019.9
20260831184413 33 196 3.2 4.8 0.00 0.00 0.00 49 1020.0
20260831183908 33 233 4.8 8.0 0.00 0.00 0.00 48 1020.1
20260831183408 33 329 0.0 4.8 0.00 0.00 0.00 51 1020.0
20260831182907 33 203 1.6 6.4 0.00 0.00 0.00 50 1020.2
20260831182403 33 176 0.0 4.8 0.00 0.00 0.00 50 1020.3
20260831181858 32 119 0.0 6.4 0.00 0.00 0.00 52 1020.2
20260831181353 32 207 4.8 6.4 0.00 0.00 0.00 52 1020.1
20260831180848 32 162 1.6 6.4 0.00 0.00 0.00 51 1020.4
20260831180342 32 154 3.2 4.8 0.00 0.00 0.00 54 1020.4
20260831175841 32 241 1.6 6.4 0.00 0.00 0.00 54 1020.3
20260831175338 32 279 8.0 8.0 0.00 0.00 0.00 53 1020.5
20260831174835 32 299 0.0 3.2 0.00 0.00 0.00 54 1020.3
20260831174330 32 223 8.0 8.0 0.00 0.00 0.00 55 1020.4
20260831173829 32 208 6.4 6.4 0.00 0.00 0.00 56 1020.5
20260831173328 32 269 3.2 4.8 0.00 0.00 0.00 55 1020.8
20260831172823 32 166 1.6 6.4 0.00 0.00 0.00 53 1020.8
20260831172319 32 273 6.4 6.4 0.00 0.00 0.00 54 1020.8
20260831171819 32 259 1.6 3.2 0.00 0.00 0.00 57 1020.7
20260831171315 31 121 0.0 4.8 0.00 0.00 0.00 57 1020.6
20260831170812 31 207 1.6 4.8 0.00 0.00 0.00 57 1020.8
20260831170308 31 357 3.2 4.8 0.00 0.00 0.00 56 1020.8
20260831165804 31 220 3.2 6.4 0.00 0.00 0.00 56 1020.8
20260831165300 31 214 4.8 8.0 0.00 0.00 0.00 57 1020.6
20260831164756 31 258 1.6 6.4 0.00 0.00 0.00 57 1020.6
20260831164252 31 216 1.6 6.4 0.00 0.00 0.00 57 1020.8
20260831163747 31 247 8.0 8.0 0.00 0.00 0.00 62 1020.9
20260831163243 31 263 0.0 4.8 0.00 0.00 0.00 61 1020.9
20260831162741 31 277 3.2 3.2 0.00 0.00 0.00 62 1021.0
20260831162236 30 134 0.0 4.8 0.00 0.00 0.00 65 1020.8
20260831161730 31 15 0.0 4.8 0.00 0.00 0.00 61 1021.3
20260831161227 31 292 1.6 4.8 0.00 0.00 0.00 60 1021.2
20260831160726 31 144 0.0 4.8 0.00 0.00 0.00 62 1020.9
20260831160222 30 224 4.8 4.8 0.00 0.00 0.00 63 1021.2
20260831155721 30 225 3.2 6.4 0.00 0.00 0.00 63 1021.3
20260831155216 30 204 3.2 6.4 0.00 0.00 0.00 61 1021.2
20260831154712 30 299 0.0 3.2 0.00 0.00 0.00 65 1021.1
20260831154209 30 262 0.0 3.2 0.00 0.00 0.00 66 1021.0
20260831153707 30 159 0.0 1.6 0.00 0.00 0.00 66 1021.0
20260831153203 30 323 0.0 0.0 0.00 0.00 0.00 65 1021.1
20260831152659 30 174 0.0 4.8 0.00 0.00 0.00 65 1021.1
20260831152155 30 224 1.6 4.8 0.00 0.00 0.00 66 1021.2
20260831151654 30 193 3.2 6.4 0.00 0.00 0.00 67 1021.2
20260831151148 30 283 1.6 3.2 0.00 0.00 0.00 68 1021.3
20260831150644 30 245 4.8 6.4 0.00 0.00 0.00 68 1021.3
20260831150139 29 247 0.0 3.2 0.00 0.00 0.00 71 1021.1
20260831145638 28 167 0.0 1.6 0.00 0.00 0.00 72 1021.0
20260831145135 28 299 0.0 4.8 0.00 0.00 0.00 71 1021.2
20260831144631 28 268 1.6 4.8 0.00 0.00 0.00 71 1021.3
20260831144126 28 143 0.0 4.8 0.00 0.00 0.00 71 1021.0
20260831143625 28 259 0.0 4.8 0.00 0.00 0.00 72 1021.1
20260831143121 29 80 0.0 4.8 0.00 0.00 0.00 70 1021.0
20260831142618 29 177 0.0 1.6 0.00 0.00 0.00 70 1021.2
20260831142113 29 211 1.6 4.8 0.00 0.00 0.00 69 1021.2
20260831141611 28 212 1.6 4.8 0.00 0.00 0.00 71 1021.1
20260831141107 28 261 3.2 4.8 0.00 0.00 0.00 72 1021.3
20260831140606 28 237 3.2 3.2 0.00 0.00 0.00 74 1021.4
20260831140101 27 282 4.8 4.8 0.00 0.00 0.00 74 1021.1
20260831135558 27 286 1.6 4.8 0.00 0.00 0.00 77 1021.3
20260831135055 26 75 0.0 6.4 0.00 0.00 0.00 78 1021.2
20260831134550 26 201 3.2 4.8 0.00 0.00 0.00 79 1021.2
20260831134045 26 101 3.2 6.4 0.00 0.00 0.00 78 1021.3
20260831133544 26 164 0.0 4.8 0.00 0.00 0.00 80 1021.1
20260831133039 26 231 3.2 4.8 0.00 0.00 0.00 81 1021.4
20260831132536 26 192 1.6 3.2 0.00 0.00 0.00 82 1021.3
20260831132034 25 166 0.0 3.2 0.00 0.00 0.00 82 1021.1
20260831131529 25 139 1.6 4.8 0.00 0.00 0.00 84 1021.2
20260831131025 25 119 0.0 3.2 0.00 0.00 0.00 84 1021.1
20260831130520 25 111 0.0 3.2 0.00 0.00 0.00 84 1021.2
20260831130016 25 78 0.0 3.2 0.00 0.00 0.00 84 1021.1
20260831125509 25 206 0.0 3.2 0.00 0.00 0.00 84 1021.2